Location: ???????
(55.4362°N, 38.1183°E)
Time: 18:22:36
(UTC+00:00)

NOSS 3-1 (A) - Pass Details

Date: 17 June 2021
Orbit: 729 x 1483 km, 63.4° (Epoch: 23 July)

Event Time Altitude Azimuth Distance (km) Brightness Sun altitude
Exits shadow 22:35:15 13° 191° (S) 2,216 4.7 -9.9°
Maximum altitude 22:39:53 43° 124° (ESE) 1,246 4.0 -9.7°
Drops below altitude 10° 22:45:55 10° 55° (NE) 2,811 6.8 -9.5°
Sets 22:48:54 0° 50° (NE) 3,893 7.8 -9.3°
